Terminal Aerodrome Forecast
Issued by NWS

Home | Current Version | Previous Version | Graphics & Text | Print | Product List | Glossary On
Versions: 1 2 3 4 5 6 7 8 9 10 11 12 13 14 15 16 17 18 19 20 21 22 23 24 25 26 27 28
000
FTUS42 KMHX 302349
TAFPGV
TAF
KPGV 302349Z 3100/3124 00000KT P6SM SCT100 OVC200
     FM310300 18003KT P6SM BKN050
     FM310800 VRB03KT P6SM -RA BKN020 OVC050
     FM311400 16006KT P6SM VCSH BKN035 OVC050
      AMD LTD TO CLD VIS AND WIND=

USA.gov is the U.S. government's official web portal to all federal, state and local government web resources and services.